www.pogodaiklimat.ru

Погода и климат >> Архив погоды >> Австралия >> Birdsville Airport


ПОГОДА в Birdsville Airport

  • Прогноз погоды в Birdsville Airport
  • Монитор погоды в Birdsville Airport
  • Климат города

АРХИВ ПОГОДЫ в Birdsville Airport

Время (UTC), дата Ветер
(напр.,м/с)
 
Видим.   Явления Облачность Т
(С)
Тd
(С)
f
(%)
Тe
(С)
Тes
(С)
Комфортность P
(гПа)
Po
(гПа)
Тmin
(С)
Tmax
(С)
R
(мм)
S
(см)
08 20.02 ЮВ 7 н/о н/о +32.1 -0.9 12 +29 +29 жарко 1011.1 1005.8
09 20.02 Ю 5 н/о н/о +31.1 -0.5 13 +28 +28 жарко 1011.7 1006.4
11 20.02 Ю 4 н/о н/о +27.5 +0.3 17 +25 +25 комфорт 1013.0 1007.7
12 20.02 Ю 5 н/о н/о +26.4 -0.6 17 +24 +24 комфорт 1013.2 1007.9
14 20.02 Ю 4 н/о н/о +23.6 0.0 21 +22 +22 комфорт 1013.3 1008.0 +33.2
15 20.02 Ю 4 н/о н/о +22.6 -0.2 22 +22 +22 комфорт 1012.7 1007.4
17 20.02 Ю 4 н/о н/о +21.9 +1.6 26 +22 +22 комфорт 1012.8 1007.5
18 20.02 Ю 4 н/о н/о +20.8 +2.1 29 +21 +21 комфорт 1013.0 1007.7
20 20.02 ЮВ 3 н/о н/о +19.5 +2.8 33 +20 +20 1013.7 1008.4
21 20.02 Ю 3 н/о н/о +19.1 +2.5 33 +20 +20 1014.4 1009.1
23 20.02 В 7 н/о н/о +27.7 +3.4 21 +26 +26 жарко 1015.4 1010.1
00 21.02 В 7 н/о н/о +31.0 +3.9 18 +29 +29 жарко 1015.2 1009.9
02 21.02 ЮВ 5 н/о н/о +34.3 -0.4 11 +31 +31 жарко 1013.8 1008.5 +18.7
03 21.02 ЮВ 3 н/о н/о +34.6 -1.4 10 +31 +31 жарко 1013.0 1007.7
05 21.02 В 4 н/о н/о +35.4 -2.3 9 +31 +31 жарко 1011.1 1005.8
06 21.02 ЮВ 3 н/о н/о +36.5 -1.4 9 +33 +33 жарко 1010.4 1005.1
08 21.02 ЮВ 4 н/о н/о +36.1 -3.3 8 +32 +32 жарко 1009.9 1004.6
09 21.02 ЮВ 4 н/о н/о +35.2 -2.4 9 +31 +31 жарко 1010.1 1004.8
11 21.02 Ю 3 н/о н/о +30.0 -2.5 12 +27 +27 жарко 1011.1 1005.8
12 21.02 Ю 4 н/о н/о +29.2 -2.0 13 +26 +26 жарко 1011.7 1006.4
14 21.02 Ю 2 н/о н/о +25.7 -2.0 16 +24 +24 комфорт 1011.4 1006.1 +37.4
15 21.02 Ю 2 н/о н/о +24.7 -2.0 17 +23 +23 комфорт 1011.1 1005.8
17 21.02 Ю 2 н/о н/о +22.2 -1.1 21 +21 +21 комфорт 1010.0 1004.7
18 21.02 ЮВ 2 н/о н/о +21.9 -0.8 22 +21 +21 комфорт 1009.9 1004.6
20 21.02 Ю 2 н/о н/о +19.8 -1.9 23 +20 +20 1010.9 1005.6
21 21.02 Ю 2 н/о н/о +20.5 -1.3 23 +21 +21 комфорт 1011.5 1006.2
23 21.02 СВ 6 н/о н/о +29.4 +1.0 16 +27 +27 жарко 1012.2 1006.9
00 22.02 СВ 6 н/о н/о +33.5 +5.9 18 +31 +31 жарко 1012.2 1006.9
02 22.02 С 6 н/о н/о +37.1 +6.2 15 +35 +35 очень
жарко
1011.2 1005.9 +19.6
03 22.02 З 3 н/о н/о +38.2 +6.0 14 +36 +36 очень
жарко
1010.3 1005.0
05 22.02 В 3 н/о н/о +39.0 +4.4 12 +36 +36 очень
жарко
1008.8 1003.5
06 22.02 СВ 3 н/о н/о +39.7 +5.0 12 +37 +37 очень
жарко
1008.3 1003.0
08 22.02 СВ 3 н/о н/о +39.3 +4.7 12 +36 +36 очень
жарко
1008.2 1002.9
09 22.02 В 2 н/о н/о +38.7 +5.4 13 +36 +36 очень
жарко
1008.9 1003.6
11 22.02 В 2 н/о н/о +33.8 +5.4 17 +31 +31 жарко 1010.4 1005.1
12 22.02 В 3 н/о н/о +32.5 +5.1 18 +30 +30 жарко 1011.0 1005.7
14 22.02 В 3 н/о н/о +30.8 +3.8 18 +29 +29 жарко 1011.3 1006.0 +40.8
15 22.02 В 2 н/о н/о +29.6 +11.2 32 +28 +28 жарко 1011.0 1005.7
17 22.02 С 5 н/о н/о +29.4 +17.6 49 +34 +34 очень
душно
1011.2 1005.9
18 22.02 С 3 н/о н/о +27.8 +17.3 53 +32 +32 душно 1011.5 1006.2
20 22.02 СЗ 2 н/о н/о +26.2 +17.0 57 +30 +30 душно 1012.8 1007.5
21 22.02 С 2 н/о н/о +25.9 +17.0 58 +30 +30 душно 1013.5 1008.2
23 22.02 З 6 н/о н/о +32.1 +19.4 47 +38 +38 очень
душно
1014.8 1009.5
00 23.02 З 4 н/о н/о +33.8 +18.3 40 +38 +38 очень
душно
1015.0 1009.7
02 23.02 З 2 н/о н/о +36.8 +15.8 29 +39 +39 очень
душно
1014.0 1008.7 +25.5
03 23.02 В 3 н/о н/о +38.7 +13.2 22 +39 +39 душно 1013.5 1008.2
05 23.02 В 3 н/о н/о +40.6 +13.3 20 +41 +41 опасность
перегрева
1011.9 1006.6
06 23.02 ЮВ 2 н/о н/о +40.9 +12.7 19 +41 +41 опасность
перегрева
1011.1 1005.8
08 23.02 ЮВ 4 н/о н/о +40.2 +10.5 17 +39 +39 очень
жарко
1011.0 1005.7
09 23.02 Ю 4 н/о н/о +39.6 +8.1 15 +37 +37 очень
жарко
1011.7 1006.4
11 23.02 С 5 н/о н/о +35.7 +16.9 33 +39 +39 очень
душно
1013.6 1008.3
12 23.02 С 4 н/о н/о +34.4 +17.2 36 +38 +38 очень
душно
1014.7 1009.4
14 23.02 СЗ 5 н/о н/о +32.8 +17.0 39 +36 +36 очень
душно
1015.4 1010.1 +41.5
15 23.02 СЗ 4 н/о н/о +31.3 +16.5 41 +34 +34 душно 1015.0 1009.7
17 23.02 ЮЗ 3 н/о н/о +29.0 +12.4 36 +30 +30 жарко 1014.4 1009.1
18 23.02 Ю 3 н/о н/о +27.8 +12.2 38 +29 +29 жарко 1014.1 1008.8
20 23.02 Ю 4 н/о н/о +25.6 +8.1 33 +26 +26 жарко 1015.2 1009.9
21 23.02 Ю 5 н/о н/о +26.0 +5.6 27 +25 +25 комфорт 1015.8 1010.5
23 23.02 Ю 6 н/о н/о +30.9 +8.6 25 +30 +30 жарко 1016.4 1011.1
00 24.02 Ю 6 н/о н/о +33.5 +7.5 20 +32 +32 жарко 1016.4 1011.1
02 24.02 Ю 8 н/о н/о +37.9 +5.8 14 +35 +35 очень
жарко
1015.1 1009.8 +24.9
03 24.02 ЮВ 7 н/о н/о +39.6 +3.7 11 +36 +36 очень
жарко
1014.1 1008.8
05 24.02 Ю 7 н/о н/о +40.2 +1.3 9 +37 +37 очень
жарко
1012.2 1006.9
06 24.02 ЮВ 8 н/о н/о +41.7 +2.4 9 +38 +38 очень
жарко
1011.6 1006.3
08 24.02 Ю 8 н/о н/о +40.4 +2.9 10 +37 +37 очень
жарко
1011.0 1005.7
09 24.02 Ю 7 н/о н/о +39.1 +3.3 11 +36 +36 очень
жарко
1011.5 1006.2
11 24.02 Ю 9 н/о н/о +35.9 +6.2 16 +33 +33 жарко 1012.4 1007.1
12 24.02 Ю 9 н/о н/о +34.1 +6.4 18 +32 +32 жарко 1013.0 1007.7
14 24.02 Ю 9 н/о н/о +31.2 +7.0 22 +30 +30 жарко 1013.4 1008.1 +42.8
15 24.02 Ю 8 н/о н/о +30.6 +6.5 22 +29 +29 жарко 1013.1 1007.8
17 24.02 Ю 8 н/о н/о +28.7 +6.1 24 +28 +28 жарко 1012.9 1007.6
18 24.02 Ю 8 н/о н/о +28.0 +5.6 24 +27 +27 жарко 1012.7 1007.4
20 24.02 Ю 5 н/о н/о +26.8 +5.7 26 +26 +26 жарко 1013.5 1008.2
21 24.02 Ю 6 н/о н/о +26.4 +5.9 27 +26 +26 жарко 1014.0 1008.7
23 24.02 ЮВ 9 н/о н/о +29.5 +6.2 23 +28 +28 жарко 1014.5 1009.2
00 25.02 ЮВ 8 н/о н/о +32.2 +6.4 20 +30 +30 жарко 1014.2 1008.9
02 25.02 Ю 7 н/о н/о +36.2 +5.5 15 +34 +34 очень
жарко
1013.1 1007.8 +26.4
03 25.02 Ю 6 н/о н/о +39.0 +5.6 13 +36 +36 очень
жарко
1012.2 1006.9
05 25.02 Ю 7 н/о н/о +39.6 +4.9 12 +37 +37 очень
жарко
1010.4 1005.1
06 25.02 Ю 7 н/о н/о +40.2 +4.1 11 +37 +37 очень
жарко
1009.8 1004.5
08 25.02 Ю 8 н/о н/о +38.8 +1.7 10 +35 +35 очень
жарко
1009.6 1004.3
09 25.02 Ю 8 н/о н/о +37.1 +1.8 11 +34 +34 очень
жарко
1010.1 1004.8
11 25.02 Ю 7 н/о н/о +33.6 +3.4 15 +31 +31 жарко 1011.1 1005.8
12 25.02 Ю 9 н/о н/о +32.4 +5.8 19 +30 +30 жарко 1011.5 1006.2
14 25.02 Ю 9 н/о н/о +30.2 +5.5 21 +29 +29 жарко 1011.2 1005.9 +40.8
15 25.02 Ю 7 н/о н/о +28.6 +5.5 23 +27 +27 жарко 1011.1 1005.8
17 25.02 Ю 6 н/о н/о +26.1 +5.1 26 +25 +25 комфорт 1010.8 1005.5
18 25.02 Ю 5 н/о н/о +25.1 +4.8 27 +25 +25 комфорт 1010.8 1005.5
20 25.02 Ю 5 н/о н/о +23.8 +3.7 27 +23 +23 комфорт 1011.4 1006.1
21 25.02 Ю 5 н/о н/о +23.5 +3.4 27 +23 +23 комфорт 1012.0 1006.7
23 25.02 Ю 6 н/о н/о +27.9 +2.9 20 +26 +26 жарко 1012.2 1006.9
00 26.02 ЮВ 6 н/о н/о +30.9 +2.2 16 +28 +28 жарко 1012.3 1007.0
02 26.02 ЮВ 6 н/о н/о +35.7 +0.7 11 +32 +32 жарко 1011.2 1005.9 +23.4
03 26.02 ЮВ 6 н/о н/о +36.1 +1.0 11 +33 +33 жарко 1010.6 1005.3
05 26.02 ЮВ 5 н/о н/о +38.1 -0.3 9 +34 +34 очень
жарко
1008.9 1003.6
06 26.02 Ю 5 н/о н/о +38.5 0.0 9 +35 +35 очень
жарко
1008.6 1003.3
08 26.02 Ю 6 н/о н/о +37.6 -2.2 8 +34 +34 очень
жарко
1008.5 1003.2
09 26.02 Ю 6 н/о н/о +36.0 -3.4 8 +32 +32 жарко 1008.7 1003.4
11 26.02 Ю 5 н/о н/о +31.8 -3.5 10 +28 +28 жарко 1010.0 1004.7
12 26.02 Ю 6 н/о н/о +31.5 -2.5 11 +28 +28 жарко 1010.8 1005.5
14 26.02 Ю 7 н/о н/о +28.9 -0.3 15 +26 +26 жарко 1011.2 1005.9 +39.4
15 26.02 Ю 7 н/о н/о +27.1 +0.8 18 +25 +25 комфорт 1011.1 1005.8
17 26.02 Ю 6 н/о н/о +25.9 +1.9 21 +24 +24 комфорт 1010.1 1004.8
18 26.02 Ю 6 н/о н/о +25.3 +2.1 22 +24 +24 комфорт 1010.0 1004.7
20 26.02 ЮЗ 3 н/о н/о +20.4 +0.3 26 +21 +21 комфорт 1010.5 1005.2
21 26.02 ЮЗ 4 н/о н/о +20.6 +0.4 26 +21 +21 комфорт 1011.0 1005.7
23 26.02 ЮВ 5 н/о н/о +28.2 +1.7 18 +26 +26 жарко 1011.8 1006.5
00 27.02 Ю 4 н/о н/о +31.3 +2.5 16 +29 +29 жарко 1011.6 1006.3
02 27.02 ЮВ 3 н/о н/о +36.8 +0.2 10 +33 +33 жарко 1010.6 1005.3 +19.6
03 27.02 ЮЗ 5 н/о н/о +37.9 -0.4 9 +34 +34 очень
жарко
1009.7 1004.4
05 27.02 ЮЗ 4 н/о н/о +39.6 -2.6 7 +36 +36 очень
жарко
1008.3 1003.0

 

Местоположение метеостанции Birdsville Airport (Квинсленд, Австралия): широта -25.90 долгота 139.35 высота над уровнем моря 47 м.

В архиве по умолчанию представлена погода в Birdsville Airport за последнюю неделю. Архивные данные за месяц целиком и за предыдущие месяцы, начиная с января 2011 года, Вы можете получить, выбрав интересующий диапазон дат из раскрывающегося списка и нажав кнопку "Ввод!".

Внимание! Время в таблицах - всемирное. Для получения местного времени необходимо прибавить поправку, которая в Birdsville Airport равна 10 ч.

Смотрите также архив погоды в соседних городах и на ближайших метеорологических станциях:

Погода в Moomba Airport (Южная Австралия, Австралия) (259 км)
Погода в Ballera Gas Field (Квинсленд, Австралия) (298 км)
Погода в Oodnadatta Airport (Южная Австралия, Австралия) (429 км)
Погода в Marree Aero (Южная Австралия, Австралия) (437 км)
Погода в Phosphate Hill Airport (Квинсленд, Австралия) (460 км)
Погода в Jervois (Северная территория, Австралия) (461 км)
Погода в Tibooburra Airport (Новый Южный Уэльс, Австралия) (476 км)
Погода в Trepell Airport (Квинсленд, Австралия) (479 км)
Погода в Thargomindah Airport (Квинсленд, Австралия) (499 км)
Погода в Leigh Creek Airport (Южная Австралия, Австралия) (531 км)

Пояснения к столбцам:

Ветер - указаны скорость ветра в м/с - средняя за 10 мин, порывы в срок и между сроками (в фигурных скобках) и направление, откуда дует ветер: С - северный, СВ - северо-восточный, В - восточный, ЮВ - юго-восточный, Ю - южный, ЮЗ - юго-западный, З - западный, СЗ - северо-западный.
Видимость - горизонтальная дальность видимости в метрах или километрах. При видимости от 1 до 10 км при отсутствии осадков обычно наблюдается дымка, при ухудшении видимости до 1 км и менее - туман. В сухую погоду видимость может ухудшаться дымом, пылью или мглою.
Явления - указаны атмосферные явления, наблюдавшиеся в срок или в последний час перед сроком; фигурными скобками обозначены явления, наблюдавшиеся между сроками (за 1-3 часа до срока); квадратными скобками обозначены град или гололедные отложения с указанием их диаметра в мм.
Облачность - указаны через наклонную черту общая и нижняя облачность в баллах и высота нижней границы облаков в метрах; квадратными скобками обозначены формы облаков: Ci - перистые, Cs - перисто-слоистые, Cc - перисто-кучевые, Ac - высококучевые, As - высокослоистые, Sc - слоисто-кучевые, Ns - слоисто-дождевые, Cu - кучевые, Cb - кучево-дождевые. Подробнее классификацию облаков см. в Атласе облаков (PDF).
T - Температура воздуха - температура, измеренная на высоте 2 м над землей.
Td - Температура точки росы - температура, при понижении до которой содержащийся в воздухе водяной пар достигнет насыщения.
f - Относительная влажность воздуха - влажноcть воздуха, измеренная на высоте 2 м над землей.
Te - Эффективная температура - температура, которую ощущает одетый по сезону человек в тени. Характеристика душности погоды. При расчете учитывается влияние влажности воздуха и скорости ветра на теплоощущения человека.
Tes - Эффективная температура на солнце - температура, которую ощущает человек, с поправкой на солнечный нагрев. Характеристика знойности погоды. Зависит от высоты солнца над горизонтом, облачности и скорости ветра. Ночью, в пасмурную погоду, а также при ветре 12 м/с и более поправка равна нулю.
P - Атмосферное давление - приведенное к уровню моря атмосферное давление.
Po - Атмосферное давление - измеренное на уровне метеостанции атмосферное давление.
Tmin - Минимальная температура - минимум температуры воздуха на высоте 2 м над землей.
Tmax - Максимальная температура - максимум температуры воздуха на высоте 2 м над землей.
R - Количество осадков - Количество выпавших осадков, мм. При наведении курсора мыши на число - период времени, за который выпало указанное количество осадков.
S - Снежный покров - Высота снежного покрова, см. При наведении курсора мыши на число - состояние снежного покрова и степень покрытия местности в баллах.